Вернуться в каталог

BEIDOU 14

АктивенНавигацияMEO
NORAD 38774·PAYLOAD·🇨🇳 China

Запущен Sep 18, 2012 с Xichang Satellite Launch Center

Loading…

Ближайшие Пролёты (ближайшие 24 часа)

TLE

СвежийSource: Space-Track

Эпоха: Sep 14, 2026, 01:57 UTC

1 38774U 12050A   26257.08133884 -.00000048  00000-0  00000-0 0  9997
2 38774  56.5213  59.9415 0042112 263.4110  96.1213  1.86251621 79508

Отслеживайте BEIDOU 14 в реальном времени с AllMySat

Download on the App Store